TimeCDT,TemperatureF,Dew PointF,Humidity,Sea Level PressureIn,VisibilityMPH,Wind Direction,Wind SpeedMPH,Gust SpeedMPH,PrecipitationIn,Events,Conditions,WindDirDegrees,DateUTC
12:54 AM,37.0,34.0,89,30.28,10.0,Calm,Calm,-,N/A,,Clear,0,2012-10-11 05:54:00
1:54 AM,37.0,34.0,89,30.29,10.0,Calm,Calm,-,N/A,,Clear,0,2012-10-11 06:54:00
2:54 AM,36.0,33.1,89,30.28,10.0,Calm,Calm,-,N/A,,Clear,0,2012-10-11 07:54:00
3:54 AM,35.1,32.0,89,30.28,10.0,Calm,Calm,-,N/A,,Clear,0,2012-10-11 08:54:00
4:54 AM,35.1,32.0,89,30.29,10.0,Calm,Calm,-,N/A,,Clear,0,2012-10-11 09:54:00
5:33 AM,33.8,32.0,93,30.29,2.0,Calm,Calm,-,N/A,,Clear,0,2012-10-11 10:33:00
5:42 AM,35.6,32.0,87,30.29,10.0,Calm,Calm,-,N/A,,Clear,0,2012-10-11 10:42:00
5:54 AM,35.1,32.0,89,30.30,10.0,Calm,Calm,-,N/A,,Clear,0,2012-10-11 10:54:00
6:54 AM,36.0,33.1,89,30.30,10.0,Calm,Calm,-,N/A,,Clear,0,2012-10-11 11:54:00
7:54 AM,37.0,34.0,89,30.31,10.0,Calm,Calm,-,N/A,,Clear,0,2012-10-11 12:54:00
8:54 AM,46.9,35.1,63,30.31,10.0,SE,4.6,-,N/A,,Clear,140,2012-10-11 13:54:00
9:54 AM,51.1,30.9,46,30.31,10.0,SSE,9.2,-,N/A,,Clear,150,2012-10-11 14:54:00
10:54 AM,54.0,33.1,45,30.30,10.0,SSE,5.8,-,N/A,,Clear,160,2012-10-11 15:54:00
11:54 AM,57.0,33.1,40,30.30,10.0,SSW,10.4,-,N/A,,Clear,200,2012-10-11 16:54:00
12:54 PM,59.0,33.1,38,30.27,10.0,SW,8.1,-,N/A,,Clear,220,2012-10-11 17:54:00
1:54 PM,60.1,34.0,38,30.24,10.0,SW,6.9,-,N/A,,Mostly Cloudy,230,2012-10-11 18:54:00
2:54 PM,62.1,34.0,35,30.22,10.0,South,8.1,-,N/A,,Mostly Cloudy,190,2012-10-11 19:54:00
3:54 PM,61.0,37.0,41,30.21,10.0,SSW,8.1,-,N/A,,Mostly Cloudy,210,2012-10-11 20:54:00
4:54 PM,62.1,37.9,41,30.20,10.0,SW,8.1,-,N/A,,Overcast,230,2012-10-11 21:54:00
5:54 PM,60.1,37.9,44,30.21,10.0,WSW,3.5,-,N/A,,Overcast,240,2012-10-11 22:54:00
6:54 PM,55.9,39.0,53,30.21,10.0,SSW,4.6,-,N/A,,Scattered Clouds,210,2012-10-11 23:54:00
7:54 PM,53.6,39.2,58,30.21,10.0,South,4.6,-,N/A,,Clear,190,2012-10-12 00:54:00
8:54 PM,53.1,39.0,59,30.21,10.0,Calm,Calm,-,N/A,,Clear,0,2012-10-12 01:54:00
9:54 PM,52.0,41.0,66,30.22,10.0,Calm,Calm,-,N/A,,Clear,0,2012-10-12 02:54:00
10:54 PM,51.1,42.1,71,30.21,10.0,Calm,Calm,-,N/A,,Clear,0,2012-10-12 03:54:00
11:54 PM,52.0,44.1,74,30.21,10.0,Calm,Calm,-,N/A,,Overcast,0,2012-10-12 04:54:00